Marshfield, WI

9:44 PM CST on February 25, 2018 (GMT -0600)
Marshfield Municipal

Weather History for KMFI - June, 2013

Change the Weather History Date:

Tuesday, June 4, 2013

  Actual Average Record
Temperature  
Mean Temperature 54 °F -  
Max Temperature 57 °F 75 °F 91 °F (1934)
Min Temperature 51 °F 47 °F 29 °F (1945)
Degree Days  
Heating Degree Days 11    
Growing Degree Days 4 (Base 50)    
Moisture  
Dew Point 49 °F    
Average Humidity 87    
Maximum Humidity 100    
Minimum Humidity 55    
Precipitation  
Precipitation 0.05 in - - ()
Sea Level Pressure  
Sea Level Pressure 30.15 in    
Wind  
Wind Speed 7 mph (East)    
Max Wind Speed 10 mph    
Max Gust Speed -    
Visibility 8 miles    
Events Rain    
Averages and records for this station are not official NWS values.
T = Trace of Precipitation, MM = Missing Value Source: NWS Daily Summary

Daily Weather History Graph

Daily Weather History Graph

Search for Another Location

Airport or City:

Trip Planner

Search our weather history database for the weather conditions in past years. The results will help you decide how hot, cold, wet, or windy it might be!

Date:

Astronomy

Jun. 04, 2013 Rise Set
Actual Time 5:17 AM CDT 8:41 PM CDT
Civil Twilight 4:40 AM CDT 9:17 PM CDT
Nautical Twilight 3:53 AM CDT 10:05 PM CDT
Astronomical Twilight 2:53 AM CDT 11:06 PM CDT
Moon 2:55 AM CDT (6/4) 5:04 PM CDT (6/4)
Length of Visible Light 16h 37m
Length of Day
15h 24m
Waning Crescent, 14% of the Moon is Illuminated
Jun 4
Waning Crescent
Jun 8
New
Jun 16
First Quarter
Jun 23
Full
Jun 29
Last Quarter

Hourly Weather History & Observations

Time (CDT) Temp. Dew Point Humidity Pressure Visibility Wind Dir Wind Speed Gust Speed Precip Events Conditions
12:54 AM 57.0 °F 41.0 °F 55% 30.09 in 10.0 mi East 6.9 mph - N/A   Mostly Cloudy
1:54 AM 55.9 °F 44.1 °F 64% 30.08 in 10.0 mi SE 6.9 mph - N/A   Overcast
2:54 AM 55.0 °F 45.0 °F 69% 30.08 in 10.0 mi East 5.8 mph - N/A   Overcast
3:54 AM 54.0 °F 45.0 °F 72% 30.09 in 10.0 mi East 8.1 mph - N/A   Overcast
4:54 AM 53.1 °F 45.0 °F 74% 30.12 in 10.0 mi East 5.8 mph - 0.00 in   Overcast
5:54 AM 52.0 °F 45.0 °F 77% 30.13 in 10.0 mi East 5.8 mph - 0.00 in   Mostly Cloudy
6:54 AM 52.0 °F 44.1 °F 74% 30.14 in 10.0 mi East 6.9 mph - N/A   Overcast
7:54 AM 52.0 °F 45.0 °F 77% 30.14 in 10.0 mi East 8.1 mph - N/A   Overcast
8:54 AM 53.1 °F 46.9 °F 80% 30.17 in 10.0 mi SSE 6.9 mph - N/A   Mostly Cloudy
9:54 AM 54.0 °F 48.0 °F 80% 30.19 in 10.0 mi SSE 4.6 mph - 0.00 in Rain Light Rain
10:54 AM 54.0 °F 50.0 °F 86% 30.20 in 10.0 mi SE 5.8 mph - 0.00 in Rain Light Rain
11:54 AM 53.1 °F 50.0 °F 89% 30.20 in 5.0 mi ESE 6.9 mph - 0.00 in Rain Light Rain
12:54 PM 53.1 °F 51.1 °F 93% 30.18 in 7.0 mi East 9.2 mph - 0.00 in Rain Light Rain
1:54 PM 54.0 °F 52.0 °F 93% 30.19 in 6.0 mi East 5.8 mph - 0.00 in Rain Light Rain
2:54 PM 54.0 °F 52.0 °F 93% 30.18 in 7.0 mi NE 6.9 mph - 0.00 in Rain Light Rain
3:46 PM 53.6 °F 51.8 °F 94% 30.17 in 4.0 mi East 4.6 mph - 0.03 in Rain Rain
3:54 PM 54.0 °F 52.0 °F 93% 30.19 in 4.0 mi East 5.8 mph - 0.04 in Rain Rain
4:19 PM 53.6 °F 51.8 °F 94% 30.17 in 6.0 mi East 6.9 mph - 0.01 in Rain Light Rain
4:54 PM 54.0 °F 51.1 °F 90% 30.17 in 9.0 mi East 9.2 mph - 0.01 in Rain Light Rain
5:54 PM 53.1 °F 51.1 °F 93% 30.17 in 6.0 mi ENE 6.9 mph - 0.00 in Rain Light Rain
6:50 PM 53.6 °F 51.8 °F 94% 30.14 in 4.0 mi ESE 8.1 mph - 0.00 in Rain Light Rain
6:54 PM 53.1 °F 51.1 °F 93% 30.16 in 5.0 mi East 8.1 mph - 0.00 in Rain Light Rain
7:18 PM 51.8 °F 51.8 °F 100% 30.13 in 5.0 mi ESE 8.1 mph - 0.00 in Rain Light Rain
7:41 PM 51.8 °F 51.8 °F 100% 30.15 in 6.0 mi East 6.9 mph - 0.00 in Rain Light Rain
7:54 PM 52.0 °F 51.1 °F 97% 30.18 in 5.0 mi East 3.5 mph - 0.00 in Rain Light Rain
8:48 PM 51.8 °F 51.8 °F 100% 30.15 in 9.0 mi ESE 8.1 mph - 0.00 in   Overcast
8:54 PM 52.0 °F 51.1 °F 97% 30.17 in 8.0 mi ESE 8.1 mph - 0.00 in   Overcast
9:54 PM 52.0 °F 50.0 °F 93% 30.17 in 9.0 mi ESE 9.2 mph - N/A   Overcast
10:54 PM 51.1 °F 50.0 °F 96% 30.17 in 10.0 mi ESE 9.2 mph - N/A   Overcast
11:13 PM 51.8 °F 50.0 °F 94% 30.15 in 10.0 mi ESE 8.1 mph - N/A   Overcast
11:54 PM 51.1 °F 48.9 °F 92% 30.16 in 10.0 mi ESE 10.4 mph - N/A   Overcast